FW0386 Weather Reports


Display with metric or nautical units.
time (UTC)temp
F
wind
direction
speed
MPH
gust
MPH
rain 1hr
in
rain 24hr
in
rain mn
in
humidity
%
barometer
mb
20260504050009 47 308 0.0 0.0 0.00 0.00 0.00 77 1014.9
20260504044536 46 308 0.0 0.0 0.00 0.00 0.00 78 1014.8
20260504043028 45 308 0.0 1.0 0.00 0.00 0.00 80 1014.7
20260504041545 43 308 0.0 0.0 0.00 0.00 0.00 83 1014.6
20260504040106 43 308 0.0 1.0 0.00 0.00 0.00 83 1014.5
20260504034533 43 308 0.0 0.0 0.00 0.00 0.00 82 1014.6
20260504033046 43 308 0.0 2.0 0.00 0.00 0.00 82 1014.7
20260504031554 43 308 0.0 0.0 0.00 0.00 0.00 81 1014.6
20260504030007 44 308 0.0 2.0 0.00 0.00 0.00 80 1014.7
20260504024525 44 309 0.0 0.0 0.00 0.00 0.00 82 1014.6
20260504023025 45 115 0.0 1.0 0.00 0.00 0.00 81 1014.8
20260504021544 45 115 0.0 2.0 0.00 0.00 0.00 79 1014.9
20260504020107 46 115 0.0 1.0 0.00 0.00 0.00 76 1014.9
20260504014520 46 120 0.0 1.0 0.00 0.00 0.00 77 1014.9
20260504013042 46 120 0.0 1.0 0.00 0.00 0.00 77 1014.9
20260504011603 45 110 0.0 2.0 0.00 0.00 0.00 80 1014.8
20260504010017 45 110 0.0 0.0 0.00 0.00 0.00 80 1014.7
20260504004530 45 110 0.0 0.0 0.00 0.00 0.00 80 1014.8
20260504003050 45 110 0.0 0.0 0.00 0.00 0.00 80 1014.8
20260504001613 45 110 0.0 0.0 0.00 0.00 0.00 80 1014.8
20260504000020 46 110 0.0 0.0 0.00 0.00 0.00 79 1015.0
20260503234502 46 110 0.0 0.0 0.00 0.00 0.00 78 1015.0
20260503233019 46 110 0.0 0.0 0.00 0.00 0.00 78 1015.2
20260503231508 47 110 0.0 0.0 0.00 0.00 0.00 78 1015.2
20260503230019 47 110 0.0 0.0 0.00 0.00 0.00 77 1015.3
20260503224525 48 110 0.0 0.0 0.00 0.00 0.00 77 1015.4
20260503223044 48 110 0.0 0.0 0.00 0.00 0.00 76 1015.4
20260503221601 49 110 0.0 0.0 0.00 0.00 0.00 76 1015.5
20260503220026 49 110 0.0 0.0 0.00 0.00 0.00 76 1015.5
20260503214526 50 110 0.0 0.0 0.00 0.00 0.00 74 1015.6
20260503213054 51 110 0.0 0.0 0.00 0.00 0.00 74 1015.5
20260503211613 52 110 0.0 0.0 0.00 0.00 0.00 72 1015.6
20260503210020 53 110 0.0 0.0 0.00 0.00 0.00 69 1015.5
20260503204539 55 110 0.0 1.0 0.00 0.00 0.00 66 1015.6
20260503203045 56 103 0.0 4.0 0.00 0.00 0.00 64 1015.6
20260503201525 56 124 0.0 1.0 0.00 0.00 0.00 64 1015.8
20260503200033 57 124 0.0 2.0 0.00 0.00 0.00 62 1015.8
20260503194548 58 125 0.0 1.0 0.00 0.00 0.00 61 1015.8
20260503193008 59 128 0.0 2.0 0.00 0.00 0.00 59 1015.7
20260503191527 59 110 0.0 1.0 0.00 0.00 0.00 57 1015.7
20260503190036 61 124 1.0 4.0 0.00 0.00 0.00 54 1015.7
20260503184538 62 117 1.0 5.0 0.00 0.00 0.00 53 1015.7
20260503183054 63 89 1.0 7.0 0.00 0.00 0.00 50 1015.6
20260503181521 64 94 1.0 6.0 0.00 0.00 0.00 48 1015.4
20260503180018 65 93 3.0 7.0 0.00 0.00 0.00 46 1015.2
20260503174536 66 185 3.0 8.0 0.00 0.00 0.00 45 1015.3
20260503173045 68 108 3.0 10.0 0.00 0.00 0.00 44 1015.3
20260503171553 69 120 3.0 9.0 0.00 0.00 0.00 42 1015.3
20260503120108 70 103 6.0 20.0 0.00 0.00 0.00 45 1017.5
20260503081537 62 79 4.0 12.0 0.00 0.00 0.00 54 1019.7
20260503071521 58 94 2.0 6.0 0.00 0.00 0.00 62 1019.6
20260503054533 51 91 0.0 2.0 0.00 0.00 0.00 69 1019.2